Plainview, TX

5:42 AM CDT on May 24, 2017 (GMT -0500)
Hale County

Weather History for KPVW - December, 2012

Change the Weather History Date:

Sunday, December 9, 2012

  Actual Average Record
Temperature  
Mean Temperature 35 °F -  
Max Temperature 46 °F 53 °F 77 °F (1970)
Min Temperature 24 °F 28 °F 2 °F (1978)
Degree Days  
Heating Degree Days 30    
Moisture  
Dew Point 18 °F    
Average Humidity 49    
Maximum Humidity 86    
Minimum Humidity 31    
Precipitation  
Precipitation 0.00 in - - ()
Sea Level Pressure  
Sea Level Pressure 29.96 in    
Wind  
Wind Speed 14 mph (North)    
Max Wind Speed 25 mph    
Max Gust Speed 34 mph    
Visibility 9 miles    
Events Snow    
Averages and records for this station are not official NWS values.
T = Trace of Precipitation, MM = Missing Value Source: NWS Daily Summary

Daily Weather History Graph

Daily Weather History Graph

Search for Another Location

Airport or City:

Trip Planner

Search our weather history database for the weather conditions in past years. The results will help you decide how hot, cold, wet, or windy it might be!

Date:

Astronomy

Dec. 09, 2012 Rise Set
Actual Time 7:41 AM CST 5:37 PM CST
Civil Twilight 7:13 AM CST 6:05 PM CST
Nautical Twilight 6:42 AM CST 6:36 PM CST
Astronomical Twilight 6:12 AM CST 7:06 PM CST
Moon 3:24 AM CST (12/9) 2:38 PM CST (12/9)
Length of Visible Light 10h 51m
Length of Day
9h 55m
Waning Crescent, 18% of the Moon is Illuminated
Dec 9
Waning Crescent
Dec 13
New
Dec 19
First Quarter
Dec 28
Full
Jan 4
Last Quarter

Hourly Weather History & Observations

Time (CST) Temp. Windchill Dew Point Humidity Pressure Visibility Wind Dir Wind Speed Gust Speed Precip Events Conditions
12:15 AM 41.0 °F 35.2 °F 23.0 °F 49% 29.75 in 10.0 mi West 9.2 mph - N/A   Clear
12:35 AM 41.0 °F 35.2 °F 23.0 °F 49% 29.74 in 10.0 mi West 9.2 mph - N/A   Clear
12:55 AM 41.0 °F 35.8 °F 23.0 °F 49% 29.74 in 10.0 mi WSW 8.1 mph - N/A   Clear
1:15 AM 39.2 °F 33.6 °F 23.0 °F 52% 29.74 in 10.0 mi WSW 8.1 mph - N/A   Clear
1:35 AM 41.0 °F 35.8 °F 23.0 °F 49% 29.75 in 10.0 mi West 8.1 mph - N/A   Clear
1:55 AM 35.6 °F 29.2 °F 21.2 °F 56% 29.75 in 10.0 mi West 8.1 mph - N/A   Clear
2:15 AM 41.0 °F 33.5 °F 23.0 °F 49% 29.74 in 10.0 mi West 13.8 mph - N/A   Clear
2:35 AM 44.6 °F 38.8 °F 23.0 °F 43% 29.74 in 10.0 mi WSW 11.5 mph - N/A   Clear
2:55 AM 42.8 °F 36.2 °F 23.0 °F 46% 29.75 in 10.0 mi West 12.7 mph - N/A   Clear
3:15 AM 44.6 °F 37.8 °F 23.0 °F 43% 29.77 in 10.0 mi West 15.0 mph - N/A   Clear
3:35 AM 46.4 °F 40.4 °F 23.0 °F 40% 29.78 in 10.0 mi West 13.8 mph - N/A   Clear
3:55 AM 46.4 °F 39.2 °F 23.0 °F 40% 29.79 in 10.0 mi NW 18.4 mph 25.3 mph N/A   Clear
4:15 AM 44.6 °F 36.6 °F 23.0 °F 43% 29.82 in 10.0 mi North 19.6 mph 26.5 mph N/A   Clear
4:35 AM 37.4 °F 27.5 °F 32.0 °F 81% 29.84 in 5.0 mi North 18.4 mph 31.1 mph N/A   Haze
4:55 AM 39.2 °F 29.8 °F 33.8 °F 81% 29.84 in 7.0 mi North 18.4 mph 27.6 mph N/A   Mostly Cloudy
5:15 AM 39.2 °F 29.0 °F 33.8 °F 81% 29.85 in 7.0 mi North 21.9 mph 29.9 mph N/A   Overcast
5:35 AM 39.2 °F 29.0 °F 33.8 °F 81% 29.86 in 7.0 mi North 21.9 mph 32.2 mph N/A   Overcast
5:55 AM 39.2 °F 29.3 °F 33.8 °F 81% 29.86 in 7.0 mi North 20.7 mph 28.8 mph N/A   Overcast
6:15 AM 39.2 °F 30.8 °F 33.8 °F 81% 29.88 in 7.0 mi NNE 15.0 mph 20.7 mph N/A   Overcast
6:35 AM 39.2 °F 31.2 °F 32.0 °F 75% 29.89 in 10.0 mi NNE 13.8 mph 23.0 mph N/A   Overcast
6:55 AM 37.4 °F 26.9 °F 32.0 °F 81% 29.90 in 10.0 mi North 20.7 mph 26.5 mph N/A   Overcast
7:15 AM 35.6 °F 25.2 °F 28.4 °F 75% 29.90 in 10.0 mi North 18.4 mph 24.2 mph N/A   Overcast
7:35 AM 35.6 °F 25.2 °F 26.6 °F 70% 29.92 in 10.0 mi North 18.4 mph 24.2 mph N/A   Overcast
7:55 AM 35.6 °F 25.5 °F 26.6 °F 70% 29.93 in 10.0 mi North 17.3 mph 24.2 mph N/A   Overcast
8:15 AM 35.6 °F 26.2 °F 26.6 °F 70% 29.95 in 10.0 mi North 15.0 mph - N/A   Overcast
8:35 AM 35.6 °F 27.5 °F 24.8 °F 65% 29.95 in 10.0 mi North 11.5 mph 20.7 mph N/A   Overcast
8:55 AM 35.6 °F 26.2 °F 24.8 °F 65% 29.96 in 10.0 mi NNE 15.0 mph 20.7 mph N/A   Mostly Cloudy
9:15 AM 35.6 °F 27.1 °F 23.0 °F 60% 29.96 in 10.0 mi NNE 12.7 mph 21.9 mph N/A   Scattered Clouds
9:35 AM 37.4 °F 27.2 °F 23.0 °F 56% 29.97 in 10.0 mi NNE 19.6 mph - N/A   Clear
9:55 AM 37.4 °F 27.5 °F 21.2 °F 52% 29.99 in 10.0 mi NNE 18.4 mph 26.5 mph N/A   Clear
10:15 AM 39.2 °F 29.6 °F 19.4 °F 45% 29.99 in 10.0 mi NNE 19.6 mph - N/A   Clear
10:35 AM 41.0 °F 32.2 °F 17.6 °F 39% 30.00 in 10.0 mi NNE 18.4 mph - N/A   Clear
10:55 AM 41.0 °F 32.5 °F 17.6 °F 39% 30.00 in 10.0 mi NNE 17.3 mph 26.5 mph N/A   Clear
11:15 AM 41.0 °F 31.9 °F 17.6 °F 39% 30.00 in 10.0 mi NNE 19.6 mph 26.5 mph N/A   Clear
11:35 AM 42.8 °F 34.5 °F 15.8 °F 34% 29.99 in 10.0 mi NNE 18.4 mph 27.6 mph N/A   Clear
12:15 PM 41.0 °F 32.5 °F 14.0 °F 33% 29.98 in 10.0 mi NNE 17.3 mph 26.5 mph N/A   Clear
12:35 PM 42.8 °F 34.3 °F 14.0 °F 31% 29.99 in 10.0 mi NE 19.6 mph 25.3 mph N/A   Clear
12:55 PM 41.0 °F 31.9 °F 14.0 °F 33% 29.98 in 10.0 mi NE 19.6 mph 26.5 mph N/A   Clear
1:15 PM 42.8 °F 35.1 °F 15.8 °F 34% 29.97 in 10.0 mi NNE 16.1 mph 25.3 mph N/A   Clear
1:35 PM 41.0 °F 32.5 °F 14.0 °F 33% 29.97 in 10.0 mi NE 17.3 mph - N/A   Clear
1:55 PM 42.8 °F 35.8 °F 14.0 °F 31% 29.97 in 10.0 mi NNE 13.8 mph 19.6 mph N/A   Clear
2:15 PM 42.8 °F 36.2 °F 14.0 °F 31% 29.97 in 10.0 mi ENE 12.7 mph 18.4 mph N/A   Clear
2:35 PM 42.8 °F 36.2 °F 14.0 °F 31% 29.97 in 10.0 mi ENE 12.7 mph 19.6 mph N/A   Clear
2:55 PM 42.8 °F 36.6 °F 15.8 °F 34% 29.97 in 10.0 mi NE 11.5 mph - N/A   Clear
3:15 PM 41.0 °F 33.9 °F 15.8 °F 36% 29.97 in 10.0 mi NE 12.7 mph 17.3 mph N/A   Clear
3:35 PM 41.0 °F 33.5 °F 15.8 °F 36% 29.98 in 10.0 mi NE 13.8 mph 18.4 mph N/A   Clear
3:55 PM 41.0 °F 33.5 °F 15.8 °F 36% 29.98 in 10.0 mi ENE 13.8 mph 18.4 mph N/A   Clear
4:15 PM 41.0 °F 34.3 °F 15.8 °F 36% 29.98 in 10.0 mi NE 11.5 mph - N/A   Clear
4:35 PM 41.0 °F 33.5 °F 12.2 °F 31% 29.99 in 10.0 mi NNE 13.8 mph 23.0 mph N/A   Clear
4:55 PM 39.2 °F 30.5 °F 10.4 °F 31% 29.99 in 10.0 mi NNE 16.1 mph - N/A   Clear
5:15 PM 37.4 °F 28.9 °F 10.4 °F 33% 30.01 in 10.0 mi NNE 13.8 mph - N/A   Clear
5:35 PM 35.6 °F 27.5 °F 10.4 °F 35% 30.01 in 10.0 mi NNE 11.5 mph 19.6 mph N/A   Clear
5:55 PM 35.6 °F 27.1 °F 10.4 °F 35% 30.03 in 10.0 mi NNE 12.7 mph 19.6 mph N/A   Clear
6:15 PM 33.8 °F 24.3 °F 8.6 °F 35% 30.04 in 10.0 mi NNE 13.8 mph 18.4 mph N/A   Clear
6:35 PM 33.8 °F 22.8 °F 10.4 °F 38% 30.05 in 10.0 mi North 18.4 mph 25.3 mph N/A   Clear
6:55 PM 32.0 °F 19.8 °F 6.8 °F 35% 30.06 in 10.0 mi North 20.7 mph 26.5 mph N/A   Clear
7:15 PM 32.0 °F 21.2 °F 6.8 °F 35% 30.09 in 10.0 mi NNE 16.1 mph 24.2 mph N/A   Clear
7:35 PM 30.2 °F 17.8 °F 5.0 °F 34% 30.10 in 10.0 mi North 19.6 mph 25.3 mph N/A   Clear
7:55 PM 30.2 °F 17.8 °F 5.0 °F 34% 30.10 in 10.0 mi North 19.6 mph 26.5 mph N/A   Clear
8:15 PM 30.2 °F 17.4 °F 6.8 °F 37% 30.11 in 10.0 mi North 20.7 mph 27.6 mph N/A   Clear
8:35 PM 30.2 °F 17.1 °F 6.8 °F 37% 30.11 in 10.0 mi North 21.9 mph 31.1 mph N/A   Clear
8:55 PM 30.2 °F 18.1 °F 8.6 °F 40% 30.12 in 10.0 mi North 18.4 mph 28.8 mph N/A   Clear
9:15 PM 30.2 °F 16.5 °F 8.6 °F 40% 30.13 in 10.0 mi North 24.2 mph 34.5 mph N/A   Clear
9:35 PM 30.2 °F 18.1 °F 8.6 °F 40% 30.13 in 10.0 mi North 18.4 mph 28.8 mph N/A   Clear
9:55 PM 30.2 °F 16.8 °F 8.6 °F 40% 30.14 in 10.0 mi North 23.0 mph 29.9 mph N/A   Clear
10:15 PM 30.2 °F 17.4 °F 8.6 °F 40% 30.14 in 10.0 mi North 20.7 mph 27.6 mph N/A   Mostly Cloudy
10:35 PM 30.2 °F 16.2 °F 5.0 °F 34% 30.15 in 10.0 mi North 25.3 mph 33.4 mph N/A   Overcast
10:55 PM 28.4 °F 14.1 °F 19.4 °F 69% 30.17 in 4.0 mi North 24.2 mph 33.4 mph N/A Snow Light Snow
11:15 PM 26.6 °F 14.3 °F 21.2 °F 80% 30.18 in 1.0 mi North 16.1 mph 25.3 mph N/A Snow Snow
11:35 PM 24.8 °F 12.9 °F 21.2 °F 86% 30.18 in 2.0 mi North 13.8 mph 23.0 mph N/A Snow Light Snow
11:55 PM 24.8 °F 12.4 °F 21.2 °F 86% 30.19 in 4.0 mi North 15.0 mph 20.7 mph N/A   Overcast